• MPC Preparation (Info)

  • MPEC 2015-P14 : 2015 PK

    The following Minor Planet Electronic Circular may be linked-to from your own Web pages, but must not otherwise be redistributed electronically.

    A form allowing access to any MPEC is at the bottom of this page.


    Read MPEC 2015-P13 Read MPEC 2015-P15


    M.P.E.C. 2015-P14                                Issued 2015 Aug. 8, 19:22 UT
    
         The Minor Planet Electronic Circulars contain information on unusual
             minor planets and routine data on comets.  They are published
       on behalf of Commission 20 of the International Astronomical Union by the
              Minor Planet Center, Smithsonian Astrophysical Observatory,
                              Cambridge, MA 02138, U.S.A.
    
                 Prepared using the Tamkin Foundation Computer Network
    
                                  MPC@CFA.HARVARD.EDU
                URL https://www.minorplanetcenter.net/    ISSN 1523-6714
    
                                        2015 PK
    
    Observations:
         K15P00K* C2015 08 07.52501 22 07 48.779-27 21 46.11         19.2 iLEP014F51
         K15P00K  C2015 08 07.53559 22 07 50.616-27 21 49.96         19.2 iLEP014F51
         K15P00K  C2015 08 07.55678 22 07 54.428-27 21 53.94         19.4 iLEP014F51
         K15P00K  C2015 08 07.88179822 10 31.36 -27 18 04.6          19.9 RqEP014K93
         K15P00K  C2015 08 07.88298722 10 31.48 -27 18 06.6          20.0 RqEP014K93
         K15P00K  C2015 08 07.88440222 10 31.65 -27 18 08.8          19.8 RqEP014K93
         K15P00K  C2015 08 07.88575722 10 31.77 -27 18 11.1          19.8 RqEP014K93
         K15P00K  C2015 08 07.88688422 10 31.88 -27 18 12.9          20.0 RqEP014K93
         K15P00K  C2015 08 07.88801122 10 31.99 -27 18 14.7          19.8 RqEP014K93
         K15P00K  C2015 08 07.88920322 10 32.10 -27 18 16.8          19.8 RqEP014K93
         K15P00K  C2015 08 07.89029822 10 32.21 -27 18 18.5          19.8 RqEP014K93
         K15P00K  C2015 08 07.89149822 10 32.32 -27 18 20.3          19.9 RqEP014K93
         K15P00K  C2015 08 07.89404922 10 32.57 -27 18 24.4          19.7 RqEP014K93
         K15P00K  C2015 08 07.89518622 10 32.68 -27 18 26.2          19.8 RqEP014K93
         K15P00K  C2015 08 07.89660122 10 32.79 -27 18 28.3          19.7 RqEP014K93
         K15P00K  C2015 08 07.89782322 10 32.90 -27 18 30.2          19.8 RqEP014K93
         K15P00K  C2015 08 07.89898222 10 33.03 -27 18 32.0          20.0 RqEP014K93
         K15P00K  C2015 08 07.90009222 10 33.11 -27 18 33.8          20.0 RqEP014K93
         K15P00K  C2015 08 07.90125222 10 33.20 -27 18 35.4          19.7 RqEP014K93
         K15P00K  C2015 08 07.90235322 10 33.29 -27 18 37.2          19.9 RqEP014K93
         K15P00K  C2015 08 08.34215 22 11 52.17 -27 30 27.0                oEP014711
         K15P00K  C2015 08 08.34563 22 11 52.18 -27 30 27.8                oEP014711
         K15P00K  C2015 08 08.34908 22 11 52.17 -27 30 28.7                oEP014711
    
    Observer details:
    711 McDonald Observatory.  Observer J. G. Ries.  2.1-m reflector + CCD + focal
        reducer.
    F51 Pan-STARRS 1, Haleakala.  Observers B. Gibson, T. Goggia, N. Primak,
        A. Schultz, M. Willman.  Measurers K. Chambers, S. Chastel, L. Denneau,
        H. Flewelling, M. Huber, E. Lilly, E. Magnier, R. Wainscoat, C. Waters,
        R. Weryk.  1.8-m Ritchey-Chretien + CCD.
    K93 Sutherland-LCOGT C.  Observer T. Lister.  1.0-m f/8 Ritchey-Chretien + CCD.
    
    Orbital elements:
    2015 PK                                                  Earth MOID = 0.0004 AU
    Epoch 2015 June 27.0 TT = JDT 2457200.5                 MPC
    M   1.92778              (2000.0)            P               Q
    n   0.36728109     Peri.  111.32306     -0.42352763     +0.90125742
    a   1.9310951      Node   133.27935     -0.87070739     -0.37715102
    e   0.5994844      Incl.    7.21465     -0.24998598     -0.21328891
    P   2.68           H   28.1           G   0.15           U   4
    Residuals in seconds of arc
    150807 F51  0.0   0.0     150807 K93  0.0   0.0     150807 K93  0.3+  0.0
    150807 F51  0.0   0.0     150807 K93  0.1-  0.1-    150807 K93  0.1+  0.1-
    150807 F51  0.0   0.0     150807 K93  0.0   0.1-    150807 K93  0.0   0.0
    150807 K93  0.1-  0.1-    150807 K93  0.1-  0.0     150807 K93  0.1-  0.1-
    150807 K93  0.1-  0.1-    150807 K93  0.1+  0.0     150808 711  0.0   0.1+
    150807 K93  0.2+  0.0     150807 K93  0.2+  0.1-    150808 711  0.0   0.2+
    150807 K93  0.0   0.0     150807 K93  0.0   0.0     150808 711  0.3-  0.1+
    150807 K93  0.0   0.0     150807 K93  0.0   0.0
    
    Ephemeris:
    2015 PK                  a,e,i = 1.93, 0.60, 7                   q = 0.7734
    Date    TT    R. A. (2000) Decl.     Delta      r     Elong.  Phase     V
    2015 07 09    09 55 05.2 +26 50 10   0.2750  0.8157    37.5   130.7    30.6
    ...
    2015 07 24    10 07 42.2 +27 08 02   0.1233  0.9083    27.5   148.9    31.6
    ...
    2015 08 01    10 11 36.9 +27 21 24   0.04767 0.9711    22.4   156.5    31.3
    ...
    2015 08 07    22 01 42.8 -26 54 46   0.0080641.0220   163.5    16.4    18.6
    2015 08 08    22 10 41.3 -27 21 05   0.01732 1.0306   162.1    17.6    20.3
    2015 08 09    22 13 22.5 -27 28 23   0.02659 1.0393   162.0    17.5    21.2
    ...
    2015 08 15    22 16 13.4 -27 32 01   0.08262 1.0925   163.8    15.0    23.7
    ...
    2015 08 23    22 16 02.1 -27 15 04   0.1596  1.1658   164.3    13.6    25.2
    ...
    2015 09 07    22 16 09.4 -26 08 15   0.3165  1.3061   157.6    17.1    27.1
    
    A. U. Tomatic                (C) Copyright 2015 MPC           M.P.E.C. 2015-P14
    

    Read MPEC 2015-P13 Read MPEC 2015-P15


    MPEC number:

    Enter an MPEC number in one of the following forms:

    • 1997-B01 (the full form)
    • J97B01 (the packed version of the full form)
    • B01 (the abbreviated form)